Flag for Lithuania Weather past 2 weeks in Vilnius, Lithuania

Now
55 °F

Clear.


Feels Like: 54 °F
Forecast: 47 / 71 °F
Wind: 7 mph from Northeast

Location: Vilnius Airport


UV Index: 3 (Moderate)

Visibility: 10 mi


Pressure: 30.15 "Hg

Humidity: 59%

Dew point: 41 °F

Location of VilniusLocation

Historic Weather in Vilnius

°F

Vilnius temperature yesterday

Maximum temperature yesterday: 63 °F (at 3:50 PM)
Minimum temperature yesterday: 37 °F (at 12:50 AM)
Average temperature yesterday: 50 °F

Past Weeks' High & Low Weather Summary

 TemperatureHumidityPressure
High70 °F (Apr 19, 4:20 PM)100% (Apr 7, 9:50 PM)30.33 "Hg (Apr 7, 9:50 PM)
Low27 °F (Apr 5, 1:20 AM)19% (Apr 6, 4:50 PM)29.56 "Hg (Apr 14, 2:50 PM)
Average45 °F67%29.98 "Hg
* Reported Apr 4 9:20 PM — Apr 19 9:50 PM, Vilnius, Weather by CustomWeather, © 2014

Note: Actual official high and low records may vary slightly from our data, if they occured in-between our weather recording intervals... More about our weather records

Advertising

Historic Weather Conditions — Data for Previous 24 hours

 ConditionsComfort  
Time TempWeatherWind HumidityBarometerVisibility
9:50 PM
Apr 19
57 °FClear.5 mph55%30.15 "Hg10 mi
9:20 PM59 °FSunny.6 mph51%30.15 "Hg10 mi
8:50 PM59 °FSunny.6 mph51%30.15 "Hg10 mi
8:20 PM61 °FSunny.6 mph48%30.15 "Hg10 mi
7:50 PM64 °FSunny.8 mph46%30.15 "Hg10 mi
7:20 PM66 °FSunny.10 mph40%30.15 "Hg10 mi
6:50 PM66 °FPassing clouds.9 mph40%30.15 "HgN/A
6:20 PM68 °FPassing clouds.9 mph38%30.15 "HgN/A
5:50 PM68 °FPassing clouds.9 mph38%30.15 "HgN/A
5:20 PM68 °FPassing clouds.10 mph40%30.15 "HgN/A
4:50 PM70 °FSunny.9 mph35%30.15 "Hg10 mi
4:20 PM70 °FPassing clouds.9 mph40%30.15 "HgN/A
3:50 PM68 °FPassing clouds.10 mph40%30.18 "HgN/A
3:20 PM68 °FPassing clouds.8 mph43%30.18 "HgN/A
2:50 PM68 °FPassing clouds.8 mph46%30.18 "HgN/A
2:20 PM68 °FPassing clouds.8 mph43%30.21 "HgN/A
1:50 PM66 °FPassing clouds.9 mph46%30.21 "HgN/A
1:20 PM66 °FPassing clouds.7 mph49%30.21 "HgN/A
12:50 PM66 °FPassing clouds.8 mph52%30.21 "HgN/A
12:20 PM64 °FPassing clouds.8 mph56%30.21 "HgN/A
11:50 AM64 °FPassing clouds.8 mph56%30.21 "HgN/A
11:20 AM63 °FPassing clouds.7 mph59%30.21 "HgN/A
10:50 AM61 °FPassing clouds.9 mph63%30.21 "HgN/A
10:20 AM59 °FPassing clouds.8 mph68%30.21 "HgN/A
9:50 AM57 °FPassing clouds.8 mph72%30.21 "HgN/A
9:20 AM55 °FClear.8 mph72%30.21 "Hg5 mi
8:50 AM54 °FClear.7 mph77%30.21 "Hg4 mi
8:20 AM52 °FClear.7 mph82%30.18 "Hg4 mi
7:50 AM50 °FClear.6 mph82%30.18 "Hg4 mi
7:20 AM48 °FFog.6 mph87%30.18 "Hg2 mi
6:50 AM46 °FFog.5 mph93%30.18 "Hg2 mi
6:20 AM46 °FFog.9 mph87%30.18 "Hg2 mi
5:50 AM46 °FClear.8 mph93%30.15 "Hg4 mi
5:20 AM46 °FClear.7 mph93%30.15 "Hg4 mi
4:50 AM46 °FClear.9 mph93%30.15 "Hg4 mi
4:20 AM46 °FClear.8 mph93%30.15 "Hg4 mi
3:50 AM48 °FClear.7 mph87%30.15 "Hg4 mi
3:20 AM48 °FClear.7 mph87%30.15 "Hg4 mi
2:50 AM46 °FClear.6 mph87%30.12 "Hg4 mi
2:20 AM46 °FClear.5 mph87%30.12 "Hg4 mi
1:50 AM46 °FClear.5 mph87%30.12 "Hg4 mi
1:20 AM46 °FClear.5 mph87%30.09 "Hg4 mi
12:50 AM50 °FClear.5 mph76%30.09 "Hg10 mi
12:20 AM50 °FClear.7 mph76%30.09 "Hg10 mi
11:50 PM
Apr 18
50 °FClear.7 mph76%30.09 "Hg10 mi
11:20 PM52 °FClear.7 mph72%30.07 "Hg10 mi
10:50 PM52 °FClear.8 mph72%30.07 "Hg10 mi
10:20 PM52 °FClear.8 mph72%30.07 "Hg10 mi
Weather by CustomWeather, © 2014

See weather overview